QPF
0.01 0.01 0.01 0.02 0.02 0.02 0.02 0.02 0.02 0.02 0.01 0.01 0.01 0.01 0.01 0.01 0.02 0.02 0.02 0.02 0.03 0.02 0.02 0.02 0.02 0.02 0.02 0.02 0.02 0.03 0.03 0.03 0.03 0.03 0.03 0.04 0.04 0.03 0.04 0.05 0.06 0.04 0.04
0.01 0.01 0.02 0.02 0.02 0.02 0.02 0.02 0.02 0.02 0.01 0.01 0.01 0.01 0.01 0.01 0.02 0.02 0.02 0.02 0.02 0.02 0.02 0.02 0.02 0.02 0.02 0.02 0.03 0.03 0.03 0.03 0.03 0.03 0.03 0.03 0.04 0.03 0.04 0.05 0.05 0.05 0.04
0.02 0.02 0.02 0.02 0.02 0.01 0.01 0.01 0.01 0.01 0.02 0.01 0.01 0.01 0.01 0.01 0.01 0.01 0.01 0.02 0.02 0.02 0.02 0.02 0.02 0.02 0.02 0.02 0.03 0.03 0.04 0.04 0.04 0.04 0.04 0.03 0.04 0.04 0.04 0.04 0.05 0.05 0.05
0.01 0.02 0.02 0.02 0.01 0.01 0.01 0.01 0.01 0.01 0.01 0.01 0.01 0.01 0.02 0.01 0.00 0.01 0.01 0.02 0.02 0.03 0.02 0.01 0.01 0.01 0.01 0.01 0.02 0.04 0.04 0.05 0.05 0.05 0.04 0.04 0.04 0.04 0.04 0.04 0.04 0.04 0.04
0.01 0.02 0.02 0.02 0.01 0.01 0.02 0.02 0.01 0.01 0.01 0.01 0.02 0.02 0.02 0.01 0.00 0.01 0.02 0.03 0.04 0.03 0.02 0.01 0.00 0.00 0.01 0.01 0.02 0.03 0.03 0.05 0.06 0.05 0.05 0.04 0.04 0.04 0.04 0.03 0.03 0.04 0.03
0.02 0.02 0.01 0.01 0.01 0.01 0.01 0.02 0.02 0.01 0.01 0.01 0.01 0.02 0.01 0.00 0.01 0.01 0.01 0.02 0.03 0.03 0.02 0.02 0.01 0.00 0.01 0.01 0.02 0.02 0.03 0.05 0.06 0.06 0.05 0.05 0.05 0.03 0.03 0.02 0.03 0.03 0.02
0.01 0.01 0.01 0.01 0.01 0.01 0.02 0.03 0.04 0.03 0.02 0.02 0.02 0.02 0.02 0.01 0.01 0.01 0.01 0.02 0.03 0.02 0.02 0.02 0.02 0.01 0.02 0.03 0.04 0.04 0.03 0.03 0.03 0.04 0.05 0.05 0.05 0.04 0.04 0.04 0.03 0.03 0.02
0.02 0.01 0.01 0.01 0.01 0.02 0.03 0.04 0.05 0.05 0.03 0.02 0.03 0.03 0.04 0.02 0.01 0.01 0.01 0.03 0.04 0.02 0.01 0.02 0.03 0.02 0.02 0.04 0.06 0.05 0.04 0.03 0.03 0.03 0.03 0.03 0.03 0.04 0.04 0.04 0.02 0.02 0.01
0.02 0.02 0.02 0.01 0.02 0.02 0.03 0.05 0.06 0.05 0.04 0.02 0.02 0.03 0.03 0.02 0.02 0.02 0.03 0.06 0.05 0.03 0.02 0.02 0.03 0.02 0.03 0.03 0.05 0.07 0.07 0.06 0.04 0.03 0.03 0.04 0.04 0.03 0.02 0.03 0.02 0.02 0.02
0.03 0.02 0.02 0.02 0.02 0.02 0.04 0.06 0.06 0.05 0.04 0.02 0.02 0.04 0.04 0.02 0.02 0.03 0.04 0.06 0.06 0.06 0.05 0.04 0.03 0.03 0.03 0.04 0.06 0.07 0.07 0.07 0.05 0.04 0.04 0.04 0.03 0.02 0.01 0.02 0.02 0.01 0.01
0.03 0.04 0.03 0.02 0.02 0.03 0.04 0.05 0.05 0.05 0.04 0.03 0.03 0.05 0.06 0.03 0.03 0.03 0.04 0.05 0.05 0.06 0.05 0.04 0.04 0.03 0.03 0.04 0.05 0.05 0.05 0.05 0.05 0.04 0.04 0.04 0.03 0.01 0.01 0.01 0.01 0.01 0.01
0.04 0.05 0.04 0.02 0.02 0.02 0.02 0.03 0.04 0.03 0.04 0.04 0.04 0.05 0.05 0.03 0.02 0.02 0.02 0.03 0.04 0.05 0.04 0.03 0.03 0.03 0.03 0.04 0.04 0.05 0.05 0.04 0.03 0.03 0.03 0.02 0.01 0.01 0.01 0.01 0.01 0.01 0.01
0.04 0.03 0.03 0.01 0.01 0.01 0.02 0.02 0.02 0.02 0.02 0.02 0.02 0.03 0.03 0.02 0.02 0.02 0.01 0.01 0.02 0.03 0.03 0.03 0.02 0.02 0.02 0.02 0.02 0.03 0.04 0.03 0.03 0.02 0.01 0.01 0.01 0.01 0.01 0.01 0.01 0.01 0.00
0.03 0.02 0.02 0.02 0.01 0.01 0.01 0.01 0.01 0.02 0.01 0.01 0.01 0.02 0.01 0.01 0.01 0.01 0.01 0.01 0.01 0.01 0.02 0.02 0.02 0.02 0.01 0.01 0.01 0.01 0.01 0.02 0.02 0.01 0.01 0.01 0.01 0.01 0.01 0.00 0.00 0.01 0.01
0.02 0.02 0.02 0.02 0.02 0.01 0.01 0.01 0.01 0.01 0.01 0.01 0.01 0.01 0.01 0.01 0.00 0.00 0.00 0.00 0.00 0.00 0.01 0.01 0.01 0.01 0.01 0.01 0.01 0.01 0.00 0.00 0.00 0.00 0.00 0.00 0.00 0.00 0.00 0.00 0.00 0.00 0.00
0.02 0.02 0.03 0.02 0.01 0.01 0.01 0.00 0.00 0.00 0.00 0.01 0.01 0.01 0.00 0.00 0.00 0.00 0.00 0.00 0.00 0.00 0.00 0.00 0.00 0.00 0.00 0.00 0.00 0.00 0.00 0.00 0.00 0.00 0.00 0.00 0.00 0.00 0.00 0.00 0.00 0.00 0.00
0.02 0.03 0.03 0.01 0.01 0.01 0.01 0.00 0.00 0.00 0.00 0.00 0.00 0.00 0.00 0.00 0.00 0.00 0.00 0.00 0.00 0.00 0.00 0.00 0.00 0.00 0.00 0.00 0.00 0.00 0.00 0.00 0.00 0.00 0.00 0.00 0.00 0.00 0.00 0.00 0.00 0.00 0.00
0.02 0.02 0.02 0.02 0.01 0.00 0.00 0.00 0.00 0.00 0.00 0.00 0.00 0.00 0.00 0.00 0.00 0.00 0.00 0.00 0.00 0.00 0.00 0.00 0.00 0.00 0.00 0.00 0.00 0.00 0.00 0.00 0.00 0.00 0.00 0.00 0.00 0.00 0.00 0.00 0.00 0.00 0.00
0.02 0.01 0.01 0.01 0.01 0.00 0.00 0.00 0.00 0.00 0.00 0.00 0.00 0.00 0.00 0.00 0.00 0.00 0.00 0.00 0.00 0.00 0.00 0.00 0.00 0.00 0.00 0.00 0.00 0.00 0.00 0.00 0.00 0.00 0.00 0.00 0.00 0.00 0.00 0.00 0.00 0.00 0.00
0.02 0.00 0.00 0.01 0.01 0.00 0.00 0.00 0.00 0.00 0.00 0.00 0.00 0.00 0.00 0.00 0.00 0.00 0.00 0.00 0.00 0.00 0.00 0.00 0.00 0.00 0.00 0.00 0.00 0.00 0.00 0.00 0.00 0.00 0.00 0.00 0.00 0.00 0.00 0.00 0.00 0.00 0.00
0.00 0.00 0.00 0.00 0.00 0.00 0.00 0.00 0.00 0.00 0.00 0.00 0.00 0.00 0.00 0.00 0.00 0.00 0.00 0.00 0.00 0.00 0.00 0.00 0.00 0.00 0.00 0.00 0.00 0.00 0.00 0.00 0.00 0.00 0.00 0.00 0.00 0.00 0.00 0.00 0.00 0.00 0.00
0.00 0.00 0.00 0.00 0.00 0.00 0.00 0.00 0.00 0.00 0.00 0.00 0.00 0.00 0.00 0.00 0.00 0.00 0.00 0.00 0.00 0.00 0.00 0.00 0.00 0.00 0.00 0.00 0.00 0.00 0.00 0.00 0.00 0.00 0.00 0.00 0.00 0.00 0.00 0.00 0.00 0.00 0.00
0.00 0.00 0.00 0.00 0.00 0.00 0.00 0.00 0.00 0.00 0.00 0.00 0.00 0.00 0.00 0.00 0.00 0.00 0.00 0.00 0.00 0.00 0.00 0.00 0.00 0.00 0.00 0.00 0.00 0.00 0.00 0.00 0.00 0.00 0.00 0.00 0.00 0.00 0.00 0.00 0.00 0.00 0.00
0.00 0.00 0.00 0.00 0.00 0.00 0.00 0.00 0.00 0.00 0.00 0.00 0.00 0.00 0.00 0.00 0.00 0.00 0.00 0.00 0.00 0.00 0.00 0.00 0.00 0.00 0.00 0.00 0.00 0.00 0.00 0.00 0.00 0.00 0.00 0.00 0.00 0.00 0.00 0.00 0.00 0.00 0.00
0.00 0.00 0.00 0.00 0.00 0.00 0.00 0.00 0.00 0.00 0.00 0.00 0.00 0.00 0.00 0.00 0.00 0.00 0.00 0.00 0.00 0.00 0.00 0.00 0.00 0.00 0.00 0.00 0.00 0.00 0.00 0.00 0.00 0.00 0.00 0.00 0.00 0.00 0.00 0.00 0.00 0.00 0.00
0.00 0.00 0.00 0.00 0.00 0.00 0.00 0.00 0.00 0.00 0.00 0.00 0.00 0.00 0.00 0.00 0.00 0.00 0.00 0.00 0.00 0.00 0.00 0.00 0.00 0.00 0.00 0.00 0.00 0.00 0.00 0.00 0.00 0.00 0.00 0.00 0.00 0.00 0.00 0.00 0.00 0.00 0.00
MSLP
1018.54 1018.60 1018.71 1018.84 1018.96 1019.05 1019.09 1019.06 1018.96 1018.81 1018.63 1018.43 1018.23 1018.03 1017.84 1017.64 1017.44 1017.24 1017.04 1016.87 1016.72 1016.63 1016.59 1016.59 1016.63 1016.69 1016.75 1016.79 1016.78 1016.74 1016.68 1016.62 1016.60 1016.66 1016.84 1017.15 1017.61 1018.21 1018.92 1019.72 1020.56 1021.39 1022.17
1018.64 1018.64 1018.69 1018.79 1018.90 1019.01 1019.08 1019.10 1019.06 1018.97 1018.83 1018.66 1018.46 1018.26 1018.05 1017.83 1017.61 1017.39 1017.18 1016.98 1016.81 1016.67 1016.56 1016.50 1016.46 1016.45 1016.43 1016.40 1016.36 1016.31 1016.26 1016.25 1016.29 1016.42 1016.67 1017.05 1017.58 1018.24 1019.01 1019.85 1020.72 1021.58 1022.38
1018.75 1018.70 1018.71 1018.77 1018.87 1018.99 1019.10 1019.17 1019.19 1019.15 1019.06 1018.93 1018.76 1018.56 1018.34 1018.10 1017.86 1017.61 1017.36 1017.12 1016.89 1016.68 1016.49 1016.33 1016.19 1016.07 1015.97 1015.88 1015.80 1015.74 1015.73 1015.77 1015.89 1016.12 1016.47 1016.96 1017.57 1018.31 1019.13 1020.01 1020.91 1021.78 1022.59
1018.89 1018.81 1018.79 1018.83 1018.92 1019.05 1019.19 1019.31 1019.38 1019.40 1019.36 1019.26 1019.11 1018.92 1018.70 1018.45 1018.18 1017.89 1017.60 1017.30 1017.00 1016.70 1016.42 1016.14 1015.89 1015.66 1015.45 1015.28 1015.16 1015.11 1015.12 1015.23 1015.45 1015.79 1016.27 1016.87 1017.59 1018.41 1019.29 1020.21 1021.12 1021.99 1022.77
1019.05 1018.96 1018.93 1018.97 1019.07 1019.21 1019.37 1019.52 1019.64 1019.71 1019.71 1019.64 1019.51 1019.33 1019.11 1018.85 1018.56 1018.25 1017.91 1017.56 1017.19 1016.80 1016.41 1016.02 1015.64 1015.29 1014.98 1014.74 1014.57 1014.51 1014.56 1014.73 1015.05 1015.50 1016.10 1016.82 1017.64 1018.53 1019.47 1020.41 1021.32 1022.16 1022.90
1019.21 1019.14 1019.12 1019.17 1019.28 1019.44 1019.62 1019.80 1019.94 1020.04 1020.06 1020.02 1019.92 1019.75 1019.53 1019.27 1018.98 1018.65 1018.29 1017.90 1017.47 1017.01 1016.53 1016.03 1015.55 1015.09 1014.68 1014.36 1014.15 1014.07 1014.14 1014.37 1014.77 1015.33 1016.02 1016.84 1017.74 1018.70 1019.67 1020.61 1021.50 1022.29 1022.96
1019.34 1019.32 1019.34 1019.41 1019.54 1019.71 1019.91 1020.09 1020.25 1020.36 1020.40 1020.37 1020.28 1020.12 1019.92 1019.67 1019.39 1019.07 1018.71 1018.30 1017.85 1017.35 1016.81 1016.24 1015.68 1015.13 1014.65 1014.26 1014.00 1013.91 1013.99 1014.26 1014.71 1015.33 1016.10 1016.98 1017.93 1018.91 1019.87 1020.79 1021.62 1022.34 1022.91
1019.45 1019.48 1019.55 1019.66 1019.81 1020.00 1020.19 1020.38 1020.53 1020.63 1020.67 1020.65 1020.56 1020.43 1020.25 1020.03 1019.77 1019.48 1019.15 1018.76 1018.32 1017.82 1017.26 1016.67 1016.06 1015.46 1014.93 1014.50 1014.21 1014.09 1014.17 1014.45 1014.93 1015.57 1016.37 1017.26 1018.21 1019.16 1020.08 1020.93 1021.67 1022.29 1022.76
1019.53 1019.64 1019.75 1019.90 1020.07 1020.26 1020.45 1020.63 1020.76 1020.85 1020.89 1020.86 1020.78 1020.66 1020.50 1020.32 1020.10 1019.86 1019.58 1019.25 1018.85 1018.38 1017.85 1017.27 1016.66 1016.06 1015.51 1015.06 1014.76 1014.63 1014.69 1014.97 1015.43 1016.07 1016.83 1017.69 1018.58 1019.46 1020.29 1021.03 1021.65 1022.14 1022.50
1019.64 1019.80 1019.96 1020.14 1020.33 1020.52 1020.70 1020.86 1020.97 1021.04 1021.06 1021.03 1020.95 1020.84 1020.71 1020.56 1020.40 1020.21 1019.99 1019.73 1019.39 1018.99 1018.52 1017.98 1017.41 1016.84 1016.31 1015.88 1015.58 1015.44 1015.50 1015.74 1016.17 1016.75 1017.45 1018.22 1019.01 1019.78 1020.47 1021.07 1021.56 1021.91 1022.14
1019.82 1020.01 1020.21 1020.40 1020.60 1020.78 1020.95 1021.09 1021.18 1021.23 1021.24 1021.20 1021.12 1021.02 1020.91 1020.80 1020.68 1020.54 1020.38 1020.18 1019.91 1019.58 1019.18 1018.72 1018.21 1017.70 1017.22 1016.82 1016.54 1016.41 1016.46 1016.67 1017.05 1017.56 1018.16 1018.81 1019.46 1020.08 1020.62 1021.06 1021.39 1021.62 1021.74
1020.09 1020.30 1020.50 1020.70 1020.89 1021.07 1021.22 1021.34 1021.42 1021.45 1021.44 1021.40 1021.33 1021.24 1021.15 1021.05 1020.96 1020.85 1020.73 1020.58 1020.37 1020.10 1019.77 1019.38 1018.95 1018.51 1018.10 1017.75 1017.51 1017.40 1017.44 1017.62 1017.93 1018.36 1018.85 1019.36 1019.87 1020.32 1020.70 1020.99 1021.18 1021.28 1021.31
1020.45 1020.66 1020.86 1021.05 1021.22 1021.38 1021.51 1021.61 1021.68 1021.71 1021.70 1021.65 1021.59 1021.51 1021.42 1021.33 1021.25 1021.15 1021.05 1020.91 1020.74 1020.51 1020.22 1019.89 1019.53 1019.16 1018.81 1018.53 1018.34 1018.25 1018.29 1018.44 1018.70 1019.04 1019.42 1019.81 1020.17 1020.47 1020.70 1020.85 1020.92 1020.93 1020.89
1020.88 1021.07 1021.25 1021.41 1021.56 1021.70 1021.81 1021.90 1021.96 1021.98 1021.97 1021.94 1021.88 1021.80 1021.72 1021.62 1021.53 1021.43 1021.31 1021.16 1020.98 1020.76 1020.50 1020.20 1019.89 1019.58 1019.29 1019.07 1018.92 1018.87 1018.91 1019.05 1019.26 1019.52 1019.81 1020.08 1020.31 1020.49 1020.60 1020.65 1020.64 1020.58 1020.50
1021.32 1021.48 1021.63 1021.76 1021.87 1021.98 1022.07 1022.14 1022.19 1022.22 1022.22 1022.19 1022.14 1022.07 1021.98 1021.88 1021.76 1021.63 1021.47 1021.29 1021.09 1020.84 1020.58 1020.29 1020.01 1019.73 1019.50 1019.32 1019.22 1019.20 1019.25 1019.38 1019.56 1019.76 1019.97 1020.16 1020.30 1020.38 1020.41 1020.39 1020.33 1020.25 1020.17
1021.70 1021.83 1021.93 1022.02 1022.09 1022.16 1022.22 1022.27 1022.31 1022.34 1022.35 1022.33 1022.30 1022.23 1022.15 1022.03 1021.89 1021.72 1021.52 1021.30 1021.04 1020.77 1020.48 1020.19 1019.91 1019.66 1019.46 1019.33 1019.26 1019.26 1019.33 1019.45 1019.61 1019.78 1019.94 1020.06 1020.14 1020.18 1020.16 1020.11 1020.04 1019.96 1019.90
1021.96 1022.05 1022.11 1022.16 1022.18 1022.20 1022.23 1022.25 1022.27 1022.29 1022.30 1022.30 1022.28 1022.22 1022.14 1022.02 1021.86 1021.66 1021.43 1021.16 1020.87 1020.56 1020.25 1019.94 1019.67 1019.44 1019.27 1019.16 1019.13 1019.15 1019.24 1019.36 1019.51 1019.65 1019.78 1019.87 1019.92 1019.92 1019.89 1019.84 1019.78 1019.72 1019.69
1022.07 1022.13 1022.15 1022.14 1022.12 1022.09 1022.06 1022.04 1022.03 1022.04 1022.05 1022.05 1022.04 1022.00 1021.93 1021.81 1021.65 1021.44 1021.19 1020.90 1020.59 1020.26 1019.94 1019.63 1019.37 1019.16 1019.02 1018.94 1018.93 1018.99 1019.09 1019.22 1019.36 1019.49 1019.59 1019.67 1019.70 1019.70 1019.67 1019.63 1019.59 1019.55 1019.54
1022.04 1022.08 1022.06 1022.00 1021.91 1021.82 1021.74 1021.67 1021.62 1021.60 1021.59 1021.59 1021.59 1021.57 1021.51 1021.42 1021.27 1021.08 1020.83 1020.55 1020.24 1019.92 1019.61 1019.33 1019.09 1018.92 1018.81 1018.77 1018.80 1018.87 1018.99 1019.13 1019.27 1019.39 1019.49 1019.55 1019.57 1019.57 1019.54 1019.51 1019.48 1019.46 1019.45
1021.91 1021.92 1021.86 1021.75 1021.61 1021.46 1021.31 1021.18 1021.09 1021.03 1021.00 1020.99 1020.99 1020.98 1020.95 1020.88 1020.77 1020.60 1020.39 1020.14 1019.87 1019.59 1019.32 1019.09 1018.90 1018.77 1018.71 1018.72 1018.78 1018.90 1019.03 1019.18 1019.32 1019.44 1019.53 1019.58 1019.59 1019.58 1019.55 1019.51 1019.48 1019.45 1019.43
1021.72 1021.70 1021.60 1021.45 1021.26 1021.05 1020.84 1020.66 1020.52 1020.41 1020.35 1020.33 1020.33 1020.33 1020.32 1020.28 1020.20 1020.09 1019.93 1019.74 1019.52 1019.30 1019.10 1018.94 1018.82 1018.75 1018.76 1018.82 1018.93 1019.08 1019.24 1019.40 1019.55 1019.66 1019.74 1019.77 1019.77 1019.73 1019.68 1019.62 1019.56 1019.50 1019.44
1021.50 1021.46 1021.34 1021.15 1020.92 1020.66 1020.40 1020.17 1019.98 1019.84 1019.75 1019.70 1019.69 1019.69 1019.70 1019.69 1019.66 1019.59 1019.49 1019.36 1019.22 1019.08 1018.96 1018.87 1018.83 1018.84 1018.91 1019.03 1019.19 1019.38 1019.57 1019.75 1019.90 1020.01 1020.08 1020.09 1020.06 1020.00 1019.91 1019.81 1019.71 1019.59 1019.47
1021.27 1021.21 1021.07 1020.86 1020.61 1020.32 1020.03 1019.77 1019.54 1019.37 1019.25 1019.18 1019.16 1019.16 1019.18 1019.19 1019.19 1019.16 1019.11 1019.05 1018.97 1018.91 1018.86 1018.85 1018.88 1018.97 1019.11 1019.29 1019.50 1019.73 1019.95 1020.15 1020.31 1020.41 1020.47 1020.46 1020.40 1020.30 1020.17 1020.02 1019.86 1019.68 1019.49
1021.00 1020.94 1020.80 1020.59 1020.33 1020.04 1019.74 1019.46 1019.22 1019.02 1018.89 1018.80 1018.76 1018.76 1018.77 1018.79 1018.81 1018.81 1018.80 1018.78 1018.76 1018.75 1018.77 1018.82 1018.92 1019.07 1019.26 1019.49 1019.75 1020.01 1020.25 1020.47 1020.64 1020.75 1020.79 1020.77 1020.68 1020.55 1020.38 1020.17 1019.95 1019.71 1019.45
1020.67 1020.62 1020.49 1020.29 1020.05 1019.77 1019.49 1019.21 1018.97 1018.78 1018.63 1018.53 1018.48 1018.47 1018.48 1018.50 1018.52 1018.53 1018.54 1018.55 1018.56 1018.58 1018.64 1018.73 1018.87 1019.06 1019.29 1019.56 1019.84 1020.13 1020.39 1020.62 1020.80 1020.91 1020.95 1020.92 1020.81 1020.66 1020.45 1020.20 1019.93 1019.63 1019.32
1020.23 1020.19 1020.09 1019.93 1019.72 1019.48 1019.22 1018.97 1018.75 1018.56 1018.42 1018.32 1018.27 1018.24 1018.24 1018.25 1018.27 1018.28 1018.29 1018.30 1018.33 1018.37 1018.44 1018.55 1018.71 1018.91 1019.16 1019.44 1019.73 1020.03 1020.31 1020.55 1020.73 1020.85 1020.89 1020.85 1020.74 1020.57 1020.34 1020.06 1019.76 1019.43 1019.08
Thickness
5624 5622 5619 5617 5616 5615 5614 5613 5612 5612 5612 5612 5612 5613 5613 5613 5614 5615 5616 5616 5616 5617 5618 5618 5617 5618 5619 5620 5621 5620 5619 5617 5611 5607 5605 5604 5604 5603 5603 5603 5603 5602 5602
5617 5613 5611 5609 5607 5606 5605 5604 5604 5604 5604 5604 5604 5604 5604 5604 5605 5606 5606 5607 5607 5607 5607 5608 5608 5609 5610 5611 5612 5611 5610 5610 5606 5602 5599 5597 5597 5597 5597 5596 5596 5595 5594
5609 5605 5602 5600 5598 5597 5596 5596 5596 5596 5596 5596 5596 5595 5595 5595 5595 5596 5597 5597 5597 5597 5598 5598 5599 5600 5600 5602 5602 5602 5602 5602 5600 5597 5594 5592 5592 5591 5591 5590 5590 5589 5588
5602 5597 5594 5592 5591 5590 5589 5588 5588 5588 5588 5587 5587 5587 5586 5586 5585 5586 5587 5588 5588 5589 5589 5590 5590 5591 5592 5593 5594 5594 5594 5593 5592 5591 5588 5587 5586 5586 5585 5584 5583 5583 5583
5594 5590 5587 5585 5584 5582 5581 5580 5580 5580 5580 5579 5579 5578 5578 5577 5575 5575 5577 5579 5579 5580 5581 5582 5582 5582 5584 5585 5586 5586 5586 5586 5586 5585 5583 5582 5581 5580 5580 5580 5579 5578 5578
5586 5583 5581 5578 5576 5575 5574 5573 5572 5571 5571 5571 5570 5570 5568 5566 5565 5567 5568 5571 5572 5573 5574 5575 5576 5576 5576 5577 5578 5579 5580 5580 5580 5580 5579 5578 5577 5577 5577 5577 5576 5574 5573
5580 5577 5574 5572 5570 5569 5568 5565 5564 5563 5563 5562 5562 5561 5559 5558 5558 5560 5562 5564 5566 5566 5567 5568 5570 5569 5570 5571 5573 5574 5574 5575 5576 5576 5575 5574 5573 5573 5573 5573 5572 5572 5572
5573 5571 5568 5566 5564 5563 5561 5559 5558 5556 5556 5555 5555 5554 5553 5551 5552 5554 5556 5559 5560 5561 5561 5561 5562 5562 5563 5565 5568 5568 5568 5569 5570 5571 5571 5570 5570 5570 5570 5571 5571 5571 5572
5568 5566 5564 5562 5559 5557 5555 5554 5553 5551 5550 5550 5550 5549 5548 5547 5547 5549 5551 5554 5555 5555 5555 5555 5556 5557 5558 5560 5562 5563 5563 5562 5563 5565 5565 5566 5566 5567 5567 5568 5568 5568 5568
5565 5562 5560 5558 5555 5553 5550 5549 5548 5548 5547 5547 5546 5546 5545 5544 5544 5546 5548 5551 5551 5551 5551 5551 5551 5552 5554 5556 5557 5558 5558 5558 5560 5561 5561 5562 5564 5565 5566 5566 5567 5566 5567
5562 5559 5556 5554 5552 5550 5548 5546 5545 5545 5544 5544 5543 5543 5543 5542 5542 5543 5545 5548 5549 5550 5550 5550 5549 5550 5551 5552 5553 5554 5554 5555 5557 5559 5560 5561 5563 5564 5565 5566 5566 5567 5566
5559 5556 5553 5551 5550 5548 5545 5544 5543 5542 5542 5542 5542 5542 5542 5542 5541 5542 5544 5545 5546 5548 5549 5549 5548 5548 5550 5551 5552 5553 5554 5556 5557 5559 5560 5561 5562 5563 5565 5566 5567 5568 5569
5557 5553 5551 5549 5547 5545 5544 5543 5542 5542 5542 5542 5542 5542 5543 5543 5542 5542 5543 5545 5546 5546 5547 5547 5548 5549 5550 5551 5552 5553 5555 5556 5557 5558 5560 5562 5564 5565 5567 5568 5569 5570 5571
5555 5553 5550 5548 5546 5544 5543 5543 5542 5542 5542 5542 5543 5543 5544 5544 5543 5543 5544 5545 5545 5546 5547 5548 5549 5551 5552 5553 5554 5556 5557 5559 5559 5560 5562 5565 5567 5568 5568 5570 5570 5571 5571
5555 5553 5551 5549 5547 5545 5542 5540 5541 5539 5539 5540 5542 5544 5544 5543 5540 5541 5543 5545 5545 5545 5546 5550 5552 5555 5556 5557 5559 5561 5562 5563 5563 5564 5565 5566 5568 5570 5571 5572 5572 5572 5572
5555 5553 5552 5551 5549 5548 5545 5543 5540 5540 5540 5540 5540 5541 5542 5542 5542 5543 5544 5545 5546 5547 5548 5553 5557 5560 5562 5563 5564 5565 5566 5567 5568 5568 5569 5570 5571 5571 5572 5574 5574 5574 5573
5558 5556 5555 5554 5553 5552 5550 5549 5546 5543 5542 5543 5543 5543 5544 5544 5545 5546 5547 5548 5550 5551 5553 5558 5562 5564 5567 5568 5569 5570 5571 5571 5572 5572 5572 5573 5574 5574 5575 5575 5576 5576 5576
5562 5560 5558 5558 5557 5557 5556 5556 5555 5552 5550 5549 5548 5548 5548 5548 5549 5549 5550 5550 5555 5558 5561 5564 5567 5570 5572 5573 5574 5574 5575 5575 5576 5576 5576 5577 5577 5577 5577 5577 5578 5578 5577
5567 5565 5563 5562 5562 5561 5561 5562 5562 5560 5559 5558 5557 5555 5553 5553 5553 5553 5553 5555 5561 5566 5569 5572 5574 5575 5577 5578 5578 5579 5579 5579 5579 5579 5579 5579 5579 5579 5579 5580 5580 5580 5579
5570 5567 5566 5566 5566 5566 5567 5567 5568 5567 5566 5565 5565 5565 5563 5560 5561 5563 5561 5564 5567 5571 5575 5577 5579 5581 5582 5583 5583 5584 5583 5583 5583 5583 5582 5582 5583 5582 5582 5582 5582 5582 5581
5577 5574 5570 5570 5571 5571 5572 5572 5572 5572 5572 5572 5573 5574 5571 5570 5572 5574 5576 5575 5576 5578 5581 5582 5584 5585 5587 5588 5588 5588 5588 5587 5587 5587 5586 5586 5585 5585 5585 5584 5584 5584 5584
5583 5581 5579 5578 5577 5577 5576 5577 5577 5577 5578 5578 5579 5578 5577 5577 5580 5582 5584 5585 5586 5586 5587 5587 5589 5590 5591 5592 5592 5591 5591 5591 5590 5590 5589 5588 5588 5587 5587 5586 5585 5585 5584
5587 5586 5584 5583 5583 5581 5581 5582 5582 5583 5584 5585 5586 5586 5584 5585 5586 5588 5589 5590 5591 5591 5592 5592 5592 5594 5594 5595 5594 5594 5593 5592 5592 5592 5590 5589 5588 5587 5587 5586 5585 5585 5584
5591 5591 5590 5589 5588 5588 5588 5588 5589 5589 5590 5591 5591 5592 5592 5592 5593 5594 5594 5595 5596 5596 5596 5596 5596 5596 5597 5597 5597 5596 5595 5594 5593 5592 5591 5589 5588 5587 5586 5585 5585 5585 5584
5595 5595 5594 5594 5593 5593 5593 5594 5595 5595 5595 5596 5597 5598 5599 5599 5599 5600 5600 5600 5600 5600 5600 5600 5600 5600 5600 5599 5599 5597 5596 5595 5593 5592 5590 5588 5587 5586 5585 5584 5584 5583 5582
5600 5599 5599 5599 5598 5598 5598 5598 5599 5599 5600 5601 5602 5602 5603 5604 5604 5605 5605 5604 5604 5604 5604 5604 5604 5603 5603 5602 5601 5600 5598 5596 5594 5592 5589 5587 5586 5585 5584 5583 5582 5582 5581